Kalispell, MT

5:23 AM MST on January 17, 2017 (GMT -0700)
Glacier Park International

Weather History for KGPI - June, 2014

Change the Weather History Date:

Saturday, June 7, 2014

  Actual Average Record
Temperature  
Mean Temperature 54 °F 57 °F  
Max Temperature 72 °F 70 °F 91 °F (2016)
Min Temperature 35 °F 44 °F 26 °F (1999)
Degree Days  
Heating Degree Days 11 8  
Month to date heating degree days 58 63  
Since 1 June heating degree days 58 63  
Since 1 July heating degree days 8003 7886  
Cooling Degree Days 0 0  
Month to date cooling degree days 0 0  
Year to date cooling degree days 0 3  
Since 1 June cooling degree days 0 0  
Growing Degree Days 4 (Base 50)    
Moisture  
Dew Point 37 °F    
Average Humidity 58    
Maximum Humidity 92    
Minimum Humidity 23    
Precipitation  
Precipitation T in 0.09 in 0.84 in (1953)
Month to date precipitation 0.43 0.63  
Year to date precipitation 7.68 7.24  
Snow  
Snow 0.00 in - - ()
Month to date snowfall 0.0  
Year to date snowfall 38.2  
Since 1 July snowfall 71.7  
Snow Depth 0.00 in    
Sea Level Pressure  
Sea Level Pressure 30.06 in    
Wind  
Wind Speed 3 mph (West)    
Max Wind Speed 14 mph    
Max Gust Speed 17 mph    
Visibility 10 miles    
Events Rain    
T = Trace of Precipitation, MM = Missing Value Source: NWS Daily Summary

Daily Weather History Graph

Daily Weather History Graph

Search for Another Location

Airport or City:

Trip Planner

Search our weather history database for the weather conditions in past years. The results will help you decide how hot, cold, wet, or windy it might be!

Date:

Astronomy

Jun. 07, 2014 Rise Set
Actual Time 5:37 AM MDT 9:35 PM MDT
Civil Twilight 4:56 AM MDT 10:16 PM MDT
Nautical Twilight 3:59 AM MDT 11:13 PM MDT
Astronomical Twilight 2:27 AM MDT 12:46 AM MDT
Moon 3:32 PM MDT (6/7) 2:28 AM MDT (6/7)
Length of Visible Light 17h 19m
Length of Day
15h 57m
Waxing Gibbous, 68% of the Moon is Illuminated
Jun 7
Waxing Gibbous
Jun 12
Full
Jun 19
Last Quarter
Jun 27
New
Jul 5
First Quarter

Hourly Weather History & Observations

Time (MDT) Temp. Windchill Dew Point Humidity Pressure Visibility Wind Dir Wind Speed Gust Speed Precip Events Conditions
12:55 AM 43.0 °F - 37.9 °F 82% 30.03 in 10.0 mi Calm Calm - N/A   Scattered Clouds
1:55 AM 41.0 °F - 36.0 °F 82% 30.04 in 10.0 mi Calm Calm - N/A   Clear
2:55 AM 37.9 °F - 35.1 °F 89% 30.05 in 10.0 mi Calm Calm - N/A   Clear
3:55 AM 37.0 °F - 35.1 °F 93% 30.05 in 10.0 mi Calm Calm - N/A   Clear
4:55 AM 37.0 °F - 35.1 °F 93% 30.06 in 10.0 mi Calm Calm - N/A   Clear
6:55 AM 42.8 °F - 39.2 °F 87% 30.07 in 10.0 mi Calm Calm - N/A   Clear
7:55 AM 50.0 °F - 37.4 °F 62% 30.08 in 10.0 mi North 3.5 mph - N/A   Clear
8:55 AM 52.0 °F - 37.9 °F 59% 30.09 in 10.0 mi Calm Calm - N/A   Mostly Cloudy
9:55 AM 55.0 °F - 37.9 °F 53% 30.09 in 10.0 mi Calm Calm - N/A   Mostly Cloudy
10:55 AM 59.0 °F - 37.0 °F 44% 30.10 in 10.0 mi Calm Calm - N/A   Clear
11:55 AM 63.0 °F - 39.0 °F 41% 30.08 in 10.0 mi Variable 3.5 mph - N/A   Scattered Clouds
12:55 PM 64.0 °F - 35.1 °F 34% 30.07 in 10.0 mi ENE 3.5 mph - N/A   Scattered Clouds
1:55 PM 66.9 °F - 30.9 °F 26% 30.06 in 10.0 mi Calm Calm - N/A   Clear
2:55 PM 69.1 °F - 30.9 °F 24% 30.05 in 10.0 mi Calm Calm - N/A   Scattered Clouds
3:55 PM 70.0 °F - 32.0 °F 25% 30.04 in 10.0 mi Calm Calm - N/A   Mostly Cloudy
4:55 PM 68.0 °F - 35.1 °F 30% 30.04 in 10.0 mi South 11.5 mph - N/A   Overcast
5:55 PM 64.9 °F - 37.9 °F 37% 30.05 in 10.0 mi South 10.4 mph - 0.00 in Rain Light Rain
6:55 PM 64.9 °F - 36.0 °F 34% 30.04 in 10.0 mi WSW 9.2 mph - 0.00 in   Overcast
7:55 PM 63.0 °F - 37.9 °F 40% 30.03 in 10.0 mi SW 6.9 mph - N/A   Scattered Clouds
8:55 PM 59.0 °F - 39.9 °F 49% 30.04 in 10.0 mi ENE 3.5 mph - N/A   Clear
9:55 PM 51.1 °F - 43.0 °F 74% 30.06 in 10.0 mi WNW 3.5 mph - N/A   Clear
10:55 PM 50.0 °F - 42.1 °F 74% 30.06 in 10.0 mi NE 3.5 mph - N/A   Mostly Cloudy
11:55 PM 46.0 °F 44.8 °F 41.0 °F 83% 30.06 in 10.0 mi WNW 3.5 mph - N/A   Clear